TimeMDT,TemperatureF,Dew PointF,Humidity,Sea Level PressureIn,VisibilityMPH,Wind Direction,Wind SpeedMPH,Gust SpeedMPH,PrecipitationIn,Events,Conditions,WindDirDegrees,DateUTC
12:14 AM,33.8,32.0,93,29.85,10.0,WSW,10.4,25.3,N/A,,Scattered Clouds,250,2013-09-23 06:14:00
12:35 AM,33.8,32.0,93,29.84,10.0,WSW,11.5,23.0,N/A,,Clear,240,2013-09-23 06:35:00
12:54 AM,33.8,32.0,93,29.84,10.0,SW,13.8,26.5,N/A,,Clear,230,2013-09-23 06:54:00
1:14 AM,33.8,32.0,93,29.85,10.0,SW,10.4,32.2,N/A,,Scattered Clouds,230,2013-09-23 07:14:00
1:35 AM,33.8,32.0,93,29.86,3.0,SW,10.4,26.5,N/A,,Overcast,230,2013-09-23 07:35:00
1:53 AM,33.8,33.8,100,29.84,2.5,SW,18.4,31.1,N/A,,Overcast,230,2013-09-23 07:53:00
2:14 AM,33.8,33.8,100,29.81,7.0,WSW,20.7,41.4,N/A,,Overcast,240,2013-09-23 08:14:00
2:33 AM,33.8,32.0,93,29.80,2.5,SW,18.4,35.7,N/A,,Overcast,230,2013-09-23 08:33:00
2:55 AM,32.0,32.0,100,29.79,2.0,SW,18.4,36.8,N/A,,Overcast,220,2013-09-23 08:55:00
3:14 AM,32.0,32.0,100,29.80,10.0,SW,15.0,29.9,N/A,,Mostly Cloudy,230,2013-09-23 09:14:00
3:34 AM,32.0,32.0,100,29.82,10.0,WSW,16.1,31.1,N/A,,Mostly Cloudy,240,2013-09-23 09:34:00
3:55 AM,32.0,32.0,100,29.80,10.0,WSW,17.3,36.8,N/A,,Scattered Clouds,240,2013-09-23 09:55:00
4:15 AM,32.0,30.2,93,29.80,10.0,SW,15.0,-,N/A,,Clear,230,2013-09-23 10:15:00
4:35 AM,32.0,30.2,93,29.82,10.0,SW,16.1,29.9,N/A,,Scattered Clouds,230,2013-09-23 10:35:00
4:54 AM,32.0,30.2,93,29.82,10.0,SW,19.6,36.8,N/A,,Mostly Cloudy,230,2013-09-23 10:54:00
5:14 AM,32.0,30.2,93,29.84,10.0,WSW,13.8,39.1,N/A,,Overcast,240,2013-09-23 11:14:00
5:34 AM,32.0,30.2,93,29.84,10.0,SW,19.6,35.7,N/A,,Mostly Cloudy,230,2013-09-23 11:34:00
5:54 AM,32.0,30.2,93,29.85,10.0,SW,17.3,38.0,N/A,,Scattered Clouds,230,2013-09-23 11:54:00
6:14 AM,32.0,30.2,93,29.88,10.0,WSW,10.4,18.4,N/A,,Mostly Cloudy,240,2013-09-23 12:14:00
6:35 AM,32.0,30.2,93,29.88,10.0,SW,12.7,31.1,N/A,,Scattered Clouds,230,2013-09-23 12:35:00
6:53 AM,33.8,32.0,93,29.92,10.0,SW,9.2,-,N/A,,Mostly Cloudy,230,2013-09-23 12:53:00
7:14 AM,33.8,32.0,93,29.94,10.0,SW,15.0,26.5,N/A,,Overcast,220,2013-09-23 13:14:00
7:34 AM,33.8,32.0,93,29.94,10.0,SW,16.1,34.5,N/A,,Mostly Cloudy,230,2013-09-23 13:34:00
7:53 AM,33.8,32.0,93,29.95,10.0,SW,13.8,32.2,N/A,,Mostly Cloudy,230,2013-09-23 13:53:00
8:14 AM,33.8,32.0,93,29.96,10.0,SW,16.1,34.5,N/A,,Scattered Clouds,230,2013-09-23 14:14:00
8:33 AM,35.6,32.0,87,29.97,10.0,SW,16.1,35.7,N/A,,Mostly Cloudy,230,2013-09-23 14:33:00
8:55 AM,35.6,32.0,87,29.98,10.0,SW,15.0,27.6,N/A,,Mostly Cloudy,230,2013-09-23 14:55:00
9:14 AM,33.8,32.0,93,29.98,10.0,SW,15.0,27.6,N/A,,Mostly Cloudy,220,2013-09-23 15:14:00
9:35 AM,37.4,33.8,87,30.00,10.0,SW,16.1,34.5,N/A,,Scattered Clouds,230,2013-09-23 15:35:00
9:55 AM,39.2,33.8,81,30.01,10.0,SW,18.4,36.8,N/A,,Scattered Clouds,230,2013-09-23 15:55:00
10:15 AM,39.2,33.8,81,30.01,10.0,SW,16.1,29.9,N/A,,Scattered Clouds,230,2013-09-23 16:15:00
10:34 AM,41.0,33.8,76,30.03,10.0,SW,15.0,29.9,N/A,,Scattered Clouds,230,2013-09-23 16:34:00
10:54 AM,41.0,32.0,70,30.05,10.0,SW,15.0,26.5,N/A,,Mostly Cloudy,230,2013-09-23 16:54:00
11:13 AM,42.8,32.0,66,30.05,10.0,WSW,11.5,27.6,N/A,,Scattered Clouds,240,2013-09-23 17:13:00
11:35 AM,42.8,32.0,66,30.06,10.0,SW,18.4,36.8,N/A,,Scattered Clouds,220,2013-09-23 17:35:00
11:54 AM,44.6,32.0,61,30.09,10.0,SW,13.8,24.2,N/A,,Scattered Clouds,220,2013-09-23 17:54:00
12:15 PM,44.6,32.0,61,30.10,10.0,WSW,9.2,23.0,N/A,,Scattered Clouds,240,2013-09-23 18:15:00
12:35 PM,46.4,32.0,57,30.10,10.0,WSW,8.1,20.7,N/A,,Scattered Clouds,250,2013-09-23 18:35:00
12:55 PM,46.4,32.0,57,30.10,10.0,WSW,8.1,16.1,N/A,,Clear,250,2013-09-23 18:55:00
1:15 PM,46.4,30.2,53,30.10,10.0,West,9.2,18.4,N/A,,Clear,260,2013-09-23 19:15:00
1:35 PM,48.2,30.2,50,30.11,10.0,WSW,6.9,19.6,N/A,,Clear,250,2013-09-23 19:35:00
1:54 PM,48.2,30.2,50,30.12,10.0,WSW,9.2,18.4,N/A,,Clear,250,2013-09-23 19:54:00
2:14 PM,50.0,28.4,43,30.13,10.0,WSW,9.2,19.6,N/A,,Clear,240,2013-09-23 20:14:00
2:33 PM,50.0,30.2,47,30.14,10.0,West,8.1,-,N/A,,Clear,270,2013-09-23 20:33:00
2:54 PM,50.0,28.4,43,30.16,10.0,WSW,9.2,18.4,N/A,,Clear,250,2013-09-23 20:54:00
3:15 PM,50.0,28.4,43,30.16,10.0,WSW,8.1,-,N/A,,Clear,250,2013-09-23 21:15:00
3:35 PM,50.0,28.4,43,30.18,10.0,WSW,8.1,-,N/A,,Clear,250,2013-09-23 21:35:00
3:55 PM,50.0,28.4,43,30.19,10.0,WNW,4.6,-,N/A,,Clear,290,2013-09-23 21:55:00
4:14 PM,50.0,28.4,43,30.19,10.0,West,4.6,-,N/A,,Clear,260,2013-09-23 22:14:00
4:34 PM,50.0,28.4,43,30.20,10.0,SW,6.9,-,N/A,,Clear,230,2013-09-23 22:34:00
4:55 PM,46.4,28.4,50,30.21,10.0,West,5.8,-,N/A,,Clear,270,2013-09-23 22:55:00
5:14 PM,48.2,26.6,43,30.23,10.0,Calm,Calm,-,N/A,,Clear,0,2013-09-23 23:14:00
5:35 PM,46.4,28.4,50,30.23,10.0,SW,6.9,-,N/A,,Clear,230,2013-09-23 23:35:00
5:55 PM,44.6,26.6,49,30.25,10.0,SW,5.8,-,N/A,,Clear,230,2013-09-23 23:55:00
6:15 PM,44.6,26.6,49,30.25,10.0,Calm,Calm,-,N/A,,Clear,0,2013-09-24 00:15:00
6:34 PM,42.8,26.6,53,30.27,10.0,West,5.8,-,N/A,,Clear,280,2013-09-24 00:34:00
6:54 PM,42.8,26.6,53,30.27,10.0,SW,6.9,-,N/A,,Clear,220,2013-09-24 00:54:00
7:15 PM,39.2,26.6,61,30.27,10.0,SW,9.2,-,N/A,,Clear,220,2013-09-24 01:15:00
7:34 PM,39.2,26.6,61,30.28,10.0,SW,10.4,-,N/A,,Clear,220,2013-09-24 01:34:00
7:54 PM,39.2,26.6,61,30.28,10.0,SW,10.4,-,N/A,,Clear,220,2013-09-24 01:54:00
8:13 PM,39.2,26.6,61,30.29,10.0,SW,11.5,17.3,N/A,,Clear,230,2013-09-24 02:13:00
8:34 PM,39.2,26.6,61,30.31,10.0,WSW,4.6,-,N/A,,Clear,250,2013-09-24 02:34:00
8:54 PM,37.4,26.6,65,30.32,10.0,SW,6.9,-,N/A,,Clear,220,2013-09-24 02:54:00
9:14 PM,37.4,26.6,65,30.33,10.0,SW,3.5,-,N/A,,Clear,230,2013-09-24 03:14:00
9:34 PM,39.2,26.6,61,30.33,10.0,SW,5.8,-,N/A,,Clear,220,2013-09-24 03:34:00
9:54 PM,37.4,24.8,60,30.35,10.0,SW,8.1,-,N/A,,Clear,220,2013-09-24 03:54:00
10:13 PM,39.2,26.6,61,30.35,10.0,SSW,5.8,-,N/A,,Clear,210,2013-09-24 04:13:00
10:34 PM,37.4,26.6,65,30.34,10.0,SW,5.8,-,N/A,,Clear,230,2013-09-24 04:34:00
10:53 PM,35.6,26.6,70,30.34,10.0,SSW,4.6,-,N/A,,Clear,210,2013-09-24 04:53:00
11:14 PM,35.6,26.6,70,30.35,10.0,SW,6.9,-,N/A,,Clear,220,2013-09-24 05:14:00
11:33 PM,35.6,26.6,70,30.35,10.0,SSW,8.1,-,N/A,,Clear,210,2013-09-24 05:33:00
11:55 PM,37.4,23.0,56,30.35,10.0,SW,11.5,-,N/A,,Clear,220,2013-09-24 05:55:00